[[{"header":{"parameterUnit":"m.s-1","parameterCategory":1,"la1":30.2991,"la2":30.254,"lo1":-89.0895,"lo2":-89.0444,"dx":0.0017,"dy":0.0017,"nx":28,"ny":28,"refTime":"2022-12-13T09:00:00:Z","depth":0,"parameterNumber":2,"parameterNumberName":"U-component_of_WINDS"},"data":[0,0,0,0,0,0,0,0,0,0,0,0,0,0,0,0,0,0,0,0,0,0,0,0,0,0,0,0,0,0,0,0,0,0,0,0,0,0,0,0,0,0,0,0,0,0,0,0,0,0,0,0,0,0,0,0,0,0,-1.3671,-1.3672,0,-1.379,-1.3791,-1.3793,-1.3862,-1.3863,-1.3863,-1.3863,-1.3986,-1.3989,-1.3992,0,0,0,0,0,0,0,0,0,0,0,0,0,-1.3503,-1.3506,-1.3671,-1.3672,-1.3674,-1.379,-1.3792,-1.3793,-1.3862,-1.3863,-1.3863,-1.3863,-1.3985,-1.3988,-1.3992,0,0,0,0,0,0,0,0,0,0,0,0,0,-1.3594,-1.3506,-1.367,-1.3722,-1.3728,-1.379,-1.3792,-1.3794,-1.3862,-1.3863,-1.3863,-1.3864,-1.3984,-1.3988,-1.3993,-1.4012,0,0,-1.4006,-1.4008,0,0,0,0,0,0,0,0,-1.3589,-1.36,-1.3713,-1.3719,-1.3725,-1.3812,-1.3777,-1.3867,-1.3862,-1.3811,-1.3863,-1.3864,-1.3928,-1.3937,-1.3958,-1.4018,-1.4023,-1.4007,-1.4009,-1.4011,-1.4013,0,0,0,0,0,0,0,-1.3583,-1.3596,-1.3718,-1.3715,-1.3722,-1.374,-1.3753,-1.3795,-1.3866,-1.3816,-1.3821,-1.3834,-1.3931,-1.3954,-1.3962,-1.4025,-1.4007,-1.4011,-1.4013,-1.4015,-1.4106,-1.4106,0,0,0,0,0,0,-1.3568,-1.359,-1.3714,-1.3721,-1.3657,-1.3742,-1.3757,-1.3784,-1.3865,-1.3878,-1.3834,-1.3837,-1.3946,-1.3956,-1.3966,-1.3994,-1.4011,-1.4016,-1.4018,-1.4106,-1.4106,-1.4106,0,0,0,0,0,0,-1.3564,-1.3578,-1.3709,-1.3657,-1.3675,-1.3745,-1.3774,-1.3786,-1.3809,-1.3879,-1.3892,-1.3844,-1.3947,-1.396,-1.4,-1.4,-1.4018,-1.4022,-1.4107,-1.4106,-1.4106,-1.4051,0,0,0,0,0,0,-1.3559,-1.3577,-1.3585,-1.3657,-1.3678,-1.3741,-1.3774,-1.3788,-1.3816,-1.3821,-1.3892,-1.3904,-1.3948,-1.3993,-1.4005,-1.4006,-1.4025,-1.4107,-1.4107,-1.4106,-1.4053,-1.4048,-1.4045,0,0,0,0,0,-1.3553,-1.3564,-1.3585,-1.3599,-1.3689,-1.3741,-1.3753,-1.3803,-1.3816,-1.3824,-1.387,-1.3902,-1.3998,-1.3996,-1.401,-1.4013,-1.4107,-1.4107,-1.4106,-1.4055,-1.4049,-1.4045,0,0,0,0,0,0,-1.349,-1.3575,-1.3598,-1.3633,-1.3679,-1.3752,-1.3765,-1.3795,-1.3839,-1.3842,-1.3903,-1.3918,-1.3952,-1.3987,-1.3984,-1.4036,-1.4056,-1.4058,-1.4012,-1.4008,-1.4004,-1.3995,-1.4029,0,0,0,0,0,-1.3481,-1.3515,-1.3587,-1.3611,-1.3633,-1.3695,-1.3719,-1.3754,-1.3804,-1.3824,-1.3872,-1.3919,-1.396,-1.3986,-1.4028,-1.4058,-1.4075,-1.4067,-1.4063,-1.4059,-1.406,-1.4079,-1.4076,-1.4104,-1.4104,-1.4104,0,0,-1.3461,-1.3511,-1.353,-1.36,-1.364,-1.3674,-1.3711,-1.3746,-1.3772,-1.3829,-1.387,-1.3907,-1.3964,-1.3999,-1.4017,-1.4029,-1.4056,-1.4058,-1.4055,-1.4058,-1.4078,-1.4075,-1.4073,-1.4103,-1.4103,-1.4103,0,0,-1.3443,-1.3485,-1.3509,-1.3548,-1.3607,-1.3648,-1.3654,-1.3723,-1.3749,-1.3791,-1.3835,-1.3867,-1.3936,-1.3975,-1.4004,-1.4,-1.4031,-1.4012,-1.399,-1.4008,-1.4006,-1.4004,-1.4003,-1.4001,-1.4013,-1.4013,-1.4012,0,-1.3411,-1.3465,-1.3518,-1.3551,-1.358,-1.3633,-1.3659,-1.3694,-1.3764,-1.3783,-1.3795,-1.3883,-1.3926,-1.3971,-1.397,-1.3991,-1.4,-1.4004,-1.4002,-1.4001,-1.4,-1.3999,-1.3998,-1.401,-1.401,-1.401,-1.4011,0,-1.3423,-1.3459,-1.3472,-1.3538,-1.3569,-1.3598,-1.3655,-1.3681,-1.3713,-1.3752,-1.3794,-1.3846,-1.3899,-1.3913,-1.3944,-1.3963,-1.3968,-1.399,-1.4011,-1.3993,-1.3994,-1.3994,-1.4006,-1.4007,-1.4008,-1.4008,0,0,-1.3369,-1.3464,-1.3467,-1.3498,-1.3567,-1.3597,-1.3628,-1.3679,-1.37,-1.3746,-1.3774,-1.3831,-1.3852,-1.3885,-1.3921,-1.3936,-1.393,-1.3957,-1.3959,-1.395,-1.3953,-1.3936,-1.3935,-1.3951,-1.3951,-1.3952,-1.3948,0,-1.3361,-1.3419,-1.3468,-1.3508,-1.3543,-1.3593,-1.362,-1.3666,-1.3704,-1.3738,-1.3781,-1.382,-1.3845,-1.3865,-1.3882,-1.3927,-1.3932,-1.3928,-1.3978,-1.3979,-1.3962,-1.3935,-1.3917,-1.3912,-1.3949,-1.3949,-1.3949,0,-1.336,-1.3404,-1.3447,-1.3513,-1.3529,-1.3552,-1.3604,-1.3636,-1.3689,-1.3715,-1.3751,-1.3789,-1.3825,-1.3842,-1.3892,-1.3888,-1.3912,-1.3937,-1.3938,-1.3944,-1.3963,-1.3941,-1.3911,-1.391,-1.395,-1.395,-1.395,0,-1.3316,-1.3386,-1.3421,-1.3446,-1.3523,-1.3538,-1.3571,-1.3625,-1.3652,-1.3697,-1.3716,-1.3764,-1.3791,-1.3827,-1.3877,-1.3886,-1.3922,-1.3944,-1.3945,-1.3943,-1.395,-1.3949,-1.3924,-1.3965,-1.3965,-1.3965,-1.3965,0,-1.3302,-1.3327,-1.3403,-1.3424,-1.3453,-1.3509,-1.3536,-1.3573,-1.362,-1.365,-1.3697,-1.3724,-1.3789,-1.3823,-1.3863,-1.3898,-1.391,-1.3932,-1.3942,-1.3928,-1.3925,-1.3944,-1.3945,-1.3965,-1.3965,-1.3965,-1.3965,0,-1.3258,-1.331,-1.3351,-1.3421,-1.3439,-1.3457,-1.3517,-1.354,-1.358,-1.3618,-1.363,-1.3693,-1.3736,-1.379,-1.3851,-1.3877,-1.3908,-1.3924,-1.389,-1.3896,-1.3894,-1.3894,-1.388,-1.3881,-1.3921,-1.3921,-1.392,0,-1.3246,-1.3266,-1.3337,-1.336,-1.3392,-1.3429,-1.3457,-1.3513,-1.3541,-1.3602,-1.3617,-1.3664,-1.3705,-1.3772,-1.3824,-1.387,-1.3887,-1.3879,-1.3895,-1.3879,-1.3887,-1.3885,-1.3888,-1.3875,-1.3875,-1.3874,-1.3873,0,-1.3218,-1.3243,-1.3282,-1.333,-1.3362,-1.3403,-1.3446,-1.3462,-1.3526,-1.3555,-1.36,-1.3632,-1.3693,-1.374,-1.3793,-1.3827,-1.3861,-1.3868,-1.3871,-1.3856,-1.3836,-1.3847,-1.3879,-1.3868,-1.3869,-1.3869,-1.3869,-1.387,-1.319,-1.321,-1.3263,-1.3305,-1.3343,-1.3382,-1.3407,-1.345,-1.3488,-1.3542,-1.3573,-1.3617,-1.3669,-1.3744,-1.3777,-1.3813,-1.3825,-1.3829,-1.383,-1.383,-1.3825,-1.383,-1.3822,-1.3823,-1.3823,-1.3823,-1.3823,0,-1.3165,-1.3202,-1.324,-1.3297,-1.333,-1.3359,-1.3408,-1.3433,-1.3471,-1.3517,-1.3556,-1.3607,-1.3652,-1.3707,-1.3755,-1.3773,-1.379,-1.3784,-1.3783,-1.3791,-1.3812,-1.3804,-1.377,-1.377,-1.377,-1.377,-1.377,-1.377,-1.3156,-1.3191,-1.3222,-1.3276,-1.3313,-1.3356,-1.3381,-1.3417,-1.3454,-1.3509,-1.3546,-1.3582,-1.3631,-1.3684,-1.3726,-1.3741,-1.3757,-1.3747,-1.3766,-1.3785,-1.3789,-1.3794,-1.3787,-1.3749,-1.3749,-1.3742,-1.3742,-1.3742]},{"header":{"parameterUnit":"m.s-1","parameterCategory":1,"la1":30.2991,"la2":30.254,"lo1":-89.0895,"lo2":-89.0444,"dx":0.0017,"dy":0.0017,"nx":28,"ny":28,"refTime":"2022-12-13T09:00:00:Z","depth":0,"parameterNumber":3,"parameterNumberName":"V-component_of_WINDS"},"data":[0,0,0,0,0,0,0,0,0,0,0,0,0,0,0,0,0,0,0,0,0,0,0,0,0,0,0,0,0,0,0,0,0,0,0,0,0,0,0,0,0,0,0,0,0,0,0,0,0,0,0,0,0,0,0,0,0,0,6.3301,6.3303,0,6.3456,6.3458,6.3459,6.3459,6.3457,6.3455,6.3453,6.361,6.3616,6.3622,0,0,0,0,0,0,0,0,0,0,0,0,0,6.3005,6.3011,6.3301,6.3303,6.3305,6.3455,6.3458,6.346,6.346,6.3457,6.3455,6.3452,6.3608,6.3615,6.3622,0,0,0,0,0,0,0,0,0,0,0,0,0,6.3144,6.3012,6.3301,6.3323,6.3327,6.3455,6.3458,6.346,6.346,6.3457,6.3454,6.3451,6.3606,6.3615,6.3623,6.3739,0,0,6.3651,6.3655,0,0,0,0,0,0,0,0,6.3136,6.3155,6.3318,6.3322,6.3326,6.3435,6.3411,6.3554,6.3461,6.3409,6.3453,6.345,6.3554,6.3567,6.3603,6.3747,6.3754,6.3652,6.3657,6.3661,6.3664,0,0,0,0,0,0,0,6.3127,6.3148,6.3362,6.332,6.3325,6.3325,6.3342,6.3438,6.3497,6.3414,6.3414,6.3432,6.3556,6.3594,6.3607,6.3756,6.3652,6.366,6.3665,6.3669,6.4006,6.4009,0,0,0,0,0,0,6.3113,6.314,6.3357,6.3367,6.3222,6.3333,6.3351,6.3403,6.3496,6.3507,6.3435,6.3432,6.358,6.3596,6.3612,6.3757,6.3661,6.367,6.3675,6.4003,6.4007,6.4011,0,0,0,0,0,0,6.3106,6.3132,6.3351,6.3254,6.3282,6.3341,6.3399,6.3408,6.3446,6.3512,6.3522,6.3463,6.3578,6.3599,6.3709,6.3762,6.3674,6.3682,6.3998,6.4004,6.4009,6.4045,0,0,0,0,0,0,6.3098,6.313,6.3174,6.3255,6.3287,6.3445,6.3403,6.3413,6.3462,6.346,6.3541,6.3552,6.3578,6.3695,6.3718,6.3773,6.3689,6.3994,6.4001,6.4007,6.404,6.4051,6.4061,0,0,0,0,0,6.3087,6.3177,6.3177,6.3203,6.3344,6.3448,6.3467,6.3495,6.3466,6.3512,6.3554,6.3549,6.3752,6.3706,6.3732,6.379,6.3991,6.3999,6.4007,6.4035,6.4049,6.4061,0,0,0,0,0,0,6.31,6.3188,6.3188,6.3307,6.3371,6.3448,6.3506,6.3509,6.3581,6.3575,6.3607,6.3626,6.3735,6.3773,6.3721,6.3909,6.3868,6.3881,6.3881,6.3895,6.3905,6.3895,6.3697,0,0,0,0,0,6.3117,6.3195,6.3267,6.3365,6.3397,6.3446,6.3493,6.3509,6.3576,6.3602,6.3653,6.3717,6.3796,6.3847,6.3922,6.4044,6.4064,6.4097,6.4108,6.4116,6.4128,6.4199,6.4215,6.4037,6.4037,6.4036,0,0,6.3152,6.321,6.3257,6.3369,6.342,6.3501,6.3469,6.3554,6.3614,6.3615,6.3723,6.3762,6.3836,6.3953,6.4007,6.3988,6.4182,6.4127,6.4133,6.414,6.4209,6.4225,6.424,6.4042,6.4041,6.404,0,0,6.3259,6.3309,6.3398,6.345,6.3528,6.3561,6.3582,6.366,6.3687,6.3795,6.3798,6.387,6.4004,6.4058,6.4102,6.4231,6.423,6.4254,6.4311,6.4379,6.4394,6.4406,6.4455,6.4472,6.4266,6.4266,6.4266,0,6.3293,6.3414,6.3443,6.353,6.358,6.3586,6.3677,6.3725,6.3824,6.3859,6.3836,6.4006,6.4056,6.4187,6.4219,6.4254,6.4281,6.4246,6.4389,6.4402,6.4414,6.4461,6.4479,6.4268,6.4268,6.4268,6.4268,0,6.3454,6.3538,6.36,6.3698,6.3754,6.3842,6.3885,6.3939,6.3951,6.3986,6.4097,6.4158,6.4247,6.4279,6.429,6.4413,6.4399,6.4382,6.4342,6.4434,6.4479,6.4496,6.4272,6.4271,6.4271,6.427,0,0,6.3573,6.3686,6.3709,6.3754,6.3842,6.3907,6.3996,6.4085,6.4132,6.4199,6.4276,6.439,6.4376,6.4427,6.4445,6.4504,6.4606,6.4481,6.4483,6.4504,6.4748,6.4762,6.4782,6.4605,6.4608,6.4611,6.4742,0,6.3691,6.3851,6.388,6.4019,6.4099,6.4105,6.4183,6.4245,6.4281,6.4353,6.4392,6.4474,6.4447,6.4479,6.4538,6.4581,6.4656,6.4572,6.4678,6.4682,6.4662,6.4805,6.4819,6.494,6.476,6.4763,6.4765,0,6.385,6.3924,6.4072,6.4151,6.4185,6.4255,6.434,6.4409,6.448,6.4501,6.4559,6.4571,6.4664,6.4618,6.4749,6.4691,6.4736,6.4764,6.477,6.4783,6.473,6.4824,6.4979,6.4998,6.4792,6.479,6.4788,0,6.3926,6.4062,6.4169,6.4207,6.4301,6.4351,6.4392,6.446,6.4512,6.4586,6.4621,6.4703,6.475,6.4814,6.4848,6.4811,6.4977,6.4933,6.4999,6.4999,6.5036,6.5033,6.5203,6.506,6.506,6.5059,6.5059,0,6.4056,6.4147,6.4205,6.4271,6.4373,6.4406,6.4506,6.4547,6.4608,6.4682,6.4692,6.4761,6.4801,6.4876,6.4903,6.5009,6.5028,6.505,6.5056,6.5051,6.5048,6.5082,6.5076,6.5064,6.5063,6.5062,6.5061,0,6.4159,6.4201,6.4319,6.4399,6.4421,6.4494,6.4562,6.4627,6.4662,6.4757,6.478,6.4836,6.4926,6.4966,6.5075,6.5094,6.5215,6.5214,6.5192,6.5195,6.526,6.5254,6.5459,6.5489,6.5324,6.5325,6.5326,0,6.424,6.4311,6.44,6.4451,6.4494,6.4576,6.463,6.4665,6.472,6.4808,6.4863,6.4953,6.5027,6.517,6.522,6.5305,6.5308,6.5374,6.5321,6.5314,6.5313,6.5309,6.5318,6.5384,6.5386,6.5387,6.5388,0,6.4382,6.44,6.4478,6.4564,6.4629,6.4698,6.4765,6.4806,6.4852,6.4914,6.5007,6.5064,6.5178,6.5268,6.5356,6.5399,6.5403,6.5404,6.5425,6.5421,6.5407,6.5418,6.5221,6.54,6.5399,6.5398,6.5397,6.5397,6.4479,6.4543,6.4617,6.4704,6.4758,6.4822,6.4888,6.4932,6.501,6.5106,6.5121,6.5221,6.5292,6.5411,6.5457,6.5536,6.552,6.5548,6.5556,6.5563,6.5569,6.5392,6.5551,6.5551,6.5551,6.555,6.555,0,6.4624,6.4672,6.4751,6.4847,6.4916,6.4913,6.4988,6.5046,6.5134,6.52,6.5273,6.5381,6.5469,6.5526,6.5615,6.5667,6.5671,6.569,6.5688,6.5698,6.5576,6.5552,6.5686,6.5686,6.5685,6.5685,6.5685,6.5685,6.4707,6.4817,6.4844,6.4981,6.5028,6.5127,6.517,6.5229,6.5283,6.5403,6.5476,6.5514,6.5577,6.5671,6.5752,6.5767,6.58,6.582,6.5835,6.572,6.5706,6.5693,6.567,6.5826,6.5827,6.595,6.5951,6.5952]}]]